Weather reports worldwide

Advertisment
Lorient Lan Bihoue, France (7205): temperature & dewpoint: 01.08.2020 03:00:00 - 07.08.2020 03:00:00 (CEST)Lorient Lan Bihoue, France (7205): temperature 5cm: 01.08.2020 03:00:00 - 07.08.2020 03:00:00 (CEST)Lorient Lan Bihoue, France (7205): temperature -20cm: 01.08.2020 03:00:00 - 07.08.2020 03:00:00 (CEST)Lorient Lan Bihoue, France (7205): wind speed & gusts: 01.08.2020 03:00:00 - 07.08.2020 03:00:00 (CEST)Lorient Lan Bihoue, France (7205): wind direction: 01.08.2020 03:00:00 - 07.08.2020 03:00:00 (CEST)Lorient Lan Bihoue, France (7205): reduced air pressure: 01.08.2020 03:00:00 - 07.08.2020 03:00:00 (CEST)Lorient Lan Bihoue, France (7205): visibility: 01.08.2020 03:00:00 - 07.08.2020 03:00:00 (CEST)Lorient Lan Bihoue, France (7205): sunshine duration: 01.08.2020 03:00:00 - 07.08.2020 03:00:00 (CEST)Lorient Lan Bihoue, France (7205): precipitation: 01.08.2020 03:00:00 - 07.08.2020 03:00:00 (CEST)
Date & Time tt [°C] td [°C] tt 5cm [°C] tt -20cm [°C] ff [km/h] ff [kn] fx [km/h] fx [kn] dd ppp [hPa] vv [km] sd [min] rr [mm]
07.08.2020 03:00:00 - - - - - - - - - - - - -
07.08.2020 02:00:00 17,6 13,9 15,0 20,6 11 6 21 11 NE 1016,2 60 0 0,0
07.08.2020 01:00:00 17,8 13,9 9,3 20,6 13 7 19 10 NNE 1016,4 60 0 0,0
07.08.2020 00:00:00 18,0 11,1 8,9 20,8 5 3 8 5 N 1016,6 60 0 0,0
06.08.2020 23:00:00 17,6 11,6 9,2 20,8 5 3 9 5 NNW 1016,5 60 0 0,0
06.08.2020 22:00:00 20,5 12,5 11,4 20,8 3 2 9 5 NNW 1016,3 17 14 0,0
06.08.2020 21:00:00 25,1 10,5 18,7 20,7 3 2 9 5 WNW 1016,0 60 60 0,0
06.08.2020 20:00:00 26,6 10,7 27,5 20,6 5 3 13 7 W 1016,1 60 60 0,0
06.08.2020 19:00:00 26,8 12,4 29,5 20,4 9 5 18 10 W 1016,1 20 25 0,0
06.08.2020 18:00:00 27,6 12,0 35,6 20,2 11 6 26 14 SW 1016,4 50 60 0,0
06.08.2020 17:00:00 27,9 12,7 37,8 20,0 16 9 26 14 WSW 1016,4 55 60 0,0
06.08.2020 16:00:00 28,1 13,2 36,5 19,8 7 4 21 12 SSW 1016,6 58 60 0,0
06.08.2020 15:00:00 27,4 13,7 36,2 19,6 10 6 23 12 S 1016,9 58 60 0,0
06.08.2020 14:00:00 26,6 13,0 35,3 19,5 9 5 19 11 SE 1017,2 60 60 0,0
06.08.2020 13:00:00 25,3 14,7 32,9 19,4 8 4 20 11 SE 1017,2 40 60 0,0
06.08.2020 12:00:00 21,5 17,3 25,7 19,4 6 4 18 10 ESE 1017,3 60 34 0,0
06.08.2020 11:00:00 19,8 19,6 21,5 19,4 4 2 15 8 E 1017,6 50 11 0,0
06.08.2020 10:00:00 18,3 18,3 18,6 19,4 5 3 15 8 ESE 1017,5 0,4 4 0,0
06.08.2020 09:00:00 17,1 16,9 16,8 19,5 8 4 11 6 E 1017,1 0,1 0 0,0
06.08.2020 08:00:00 16,1 15,9 14,2 19,5 4 2 6 4 E 1016,6 0,1 0 0,0
06.08.2020 07:00:00 15,1 14,9 12,5 19,7 5 3 7 4 NE 1016,5 0,1 0 0,2
06.08.2020 06:00:00 15,3 15,1 12,9 19,8 5 3 6 3 ENE 1016,4 0,1 0 0,0
06.08.2020 05:00:00 15,4 15,2 12,8 19,8 5 3 5 3 ENE 1016,4 0,1 0 0,0
06.08.2020 04:00:00 16,4 16,1 11,5 20,0 3 2 4 2 ENE 1016,5 0,1 0 0,0
06.08.2020 03:00:00 15,9 15,6 10,8 20,1 3 2 4 2 E 1016,5 0,2 0 0,2
06.08.2020 02:00:00 16,2 15,7 10,7 20,2 2 1 6 3 E 1016,6 0,3 0 0,0
06.08.2020 01:00:00 16,9 16,4 11,3 20,3 5 3 7 4 SSE 1016,6 2,0 0 0,0
06.08.2020 00:00:00 17,4 16,8 11,3 20,3 3 2 8 4 SE 1016,6 1,1 0 0,0
05.08.2020 23:00:00 18,0 16,8 13,4 20,3 4 2 8 5 SSE 1016,5 53 0 0,0
05.08.2020 22:00:00 18,6 16,7 16,7 20,3 6 3 15 8 S 1016,1 50 16 0,0
05.08.2020 21:00:00 20,3 17,1 20,2 20,2 11 6 25 13 SSW 1015,6 41 60 0,0
05.08.2020 20:00:00 21,3 16,3 24,0 20,1 16 8 29 16 SW 1015,6 38 52 0,0
05.08.2020 19:00:00 22,0 16,5 26,3 19,9 21 11 33 18 SW 1015,7 32 37 0,0
05.08.2020 18:00:00 23,4 17,2 29,3 19,7 20 11 34 19 SW 1015,6 33 57 0,0
05.08.2020 17:00:00 23,0 15,8 28,8 19,6 24 13 36 19 SSW 1015,8 33 44 0,0
05.08.2020 16:00:00 23,5 16,5 29,7 19,3 24 13 41 22 SSW 1016,0 37 53 0,0
05.08.2020 15:00:00 23,0 16,5 28,0 19,3 19 10 36 19 SW 1016,2 20 39 0,0
05.08.2020 14:00:00 22,3 16,1 24,4 19,1 22 12 36 19 SSW 1016,1 46 21 0,0
05.08.2020 13:00:00 21,9 16,4 25,2 19,0 24 13 37 20 SSW 1015,8 48 15 0,0
05.08.2020 12:00:00 21,6 16,1 26,7 19,0 23 12 36 20 SSW 1015,8 51 37 0,0
05.08.2020 11:00:00 21,5 15,1 24,5 19,0 18 10 29 16 SSW 1015,4 56 23 0,0
05.08.2020 10:00:00 20,4 16,8 19,8 19,0 16 9 27 15 SSW 1015,4 44 6 0,0
05.08.2020 09:00:00 18,8 15,8 17,1 19,0 7 4 11 6 SSW 1015,5 60 0 0,0
05.08.2020 08:00:00 17,8 15,2 15,9 19,1 8 5 16 9 WSW 1015,4 59 0 0,0
05.08.2020 07:00:00 16,8 15,1 10,6 19,2 6 4 13 7 SSW 1015,3 54 0 0,0
05.08.2020 06:00:00 13,5 12,9 9,4 19,3 7 4 10 5 SSE 1015,5 46 0 0,0
05.08.2020 05:00:00 13,8 12,9 11,7 19,4 3 1 10 5 ESE 1015,8 42 0 0,0
05.08.2020 04:00:00 15,2 14,1 8,9 19,6 4 2 14 8 SW 1016,1 51 0 0,0
05.08.2020 03:00:00 12,3 11,5 6,5 19,7 5 3 7 4 S 1016,7 34 0 0,0
05.08.2020 02:00:00 12,5 11,4 6,7 19,9 4 2 6 4 SSE 1017,0 14 0 0,0
05.08.2020 01:00:00 13,2 11,9 7,1 20,0 3 2 5 3 SE 1017,4 5 0 0,0
05.08.2020 00:00:00 14,1 12,7 7,9 20,1 4 2 7 4 SW 1017,8 20 0 0,0
04.08.2020 23:00:00 15,0 13,2 8,2 20,1 2 1 4 2 SW 1018,0 20 0 0,0
04.08.2020 22:00:00 16,1 13,4 10,4 20,1 4 2 13 7 WSW 1017,9 28 17 0,0
04.08.2020 21:00:00 17,8 13,5 17,1 20,0 11 6 21 11 W 1018,1 44 60 0,0
04.08.2020 20:00:00 18,8 13,0 21,8 20,0 12 6 26 14 SW 1018,1 47 60 0,0
04.08.2020 19:00:00 19,2 12,7 23,5 19,8 17 9 28 15 WSW 1018,5 35 39 0,0
04.08.2020 18:00:00 19,7 12,2 28,1 19,6 17 9 29 16 WSW 1018,8 34 60 0,0
04.08.2020 17:00:00 19,7 12,0 31,4 19,4 17 9 30 16 WSW 1019,1 36 60 0,0
04.08.2020 16:00:00 19,7 10,7 32,8 19,1 17 9 29 15 WSW 1019,6 36 60 0,0
04.08.2020 15:00:00 20,1 9,3 32,3 18,9 17 9 27 15 WSW 1019,7 38 60 0,0
04.08.2020 14:00:00 19,7 9,8 32,2 18,8 15 8 25 14 SW 1020,0 39 60 0,0
04.08.2020 13:00:00 19,4 9,6 30,4 18,7 11 6 24 13 SW 1020,1 40 60 0,0
04.08.2020 12:00:00 19,3 9,8 28,4 18,7 9 5 30 16 SW 1020,1 39 60 0,0
04.08.2020 11:00:00 18,5 10,1 25,1 18,7 5 3 12 6 W 1020,1 20 60 0,0
04.08.2020 10:00:00 17,2 11,5 20,9 18,9 4 2 9 5 E 1020,1 47 60 0,0
04.08.2020 09:00:00 14,5 12,0 11,0 19,0 4 2 11 6 ENE 1020,2 32 60 0,0
04.08.2020 08:00:00 11,1 10,5 3,0 19,1 2 1 6 3 ENE 1020,0 23 37 0,0
04.08.2020 07:00:00 9,2 8,4 2,8 19,3 2 1 5 3 NNW 1020,1 1,0 0 0,0
04.08.2020 06:00:00 9,7 8,9 2,8 19,5 3 2 6 3 W 1019,9 1,8 0 0,0
04.08.2020 05:00:00 9,7 8,6 3,4 19,7 4 2 5 3 N 1020,0 5 0 0,0
04.08.2020 04:00:00 10,5 9,3 3,7 19,9 0 0 9 5 N 1020,2 20 0 0,0
04.08.2020 03:00:00 11,0 9,4 4,7 20,0 2 1 10 5 NE 1020,3 48 0 0,0
04.08.2020 02:00:00 11,7 9,6 5,0 20,2 8 4 12 6 NNE 1020,5 55 0 0,0
04.08.2020 01:00:00 12,6 9,2 5,8 20,3 8 4 10 6 NNE 1020,4 59 0 0,0
04.08.2020 00:00:00 13,3 9,5 7,5 20,4 8 5 13 7 NNE 1020,5 60 0 0,0
03.08.2020 23:00:00 14,0 9,2 11,3 20,5 10 5 20 11 N 1019,8 60 0 0,0
03.08.2020 22:00:00 16,9 9,6 15,3 20,5 13 7 24 13 N 1019,1 60 19 0,0
03.08.2020 21:00:00 19,5 10,2 18,7 20,5 13 7 29 16 N 1018,4 49 55 0,0
03.08.2020 20:00:00 19,7 13,2 21,9 20,4 14 7 37 20 W 1018,0 20 54 0,0
03.08.2020 19:00:00 19,9 12,4 22,7 20,3 23 12 41 22 W 1018,3 27 33 0,0
03.08.2020 18:00:00 20,2 11,9 26,7 20,2 29 16 42 23 W 1018,3 30 58 0,0
03.08.2020 17:00:00 20,8 13,2 30,1 20,0 27 15 39 21 W 1018,1 35 60 0,0
03.08.2020 16:00:00 20,6 12,6 31,0 19,8 27 15 42 23 W 1018,4 40 60 0,0
03.08.2020 15:00:00 21,5 12,1 30,8 19,7 23 12 40 21 WSW 1018,9 50 53 0,0
03.08.2020 14:00:00 20,9 11,2 26,7 19,6 16 9 29 16 WSW 1019,1 59 39 0,0
03.08.2020 13:00:00 20,8 10,0 24,9 19,5 13 7 31 17 NNW 1019,3 19 44 0,0
03.08.2020 12:00:00 18,4 9,7 21,6 19,5 11 6 25 14 N 1019,4 56 40 0,0
03.08.2020 11:00:00 18,5 11,8 24,2 19,5 11 6 22 12 N 1019,3 59 58 0,0
03.08.2020 10:00:00 17,5 13,2 19,7 19,5 9 5 19 10 N 1019,3 47 60 0,0
03.08.2020 09:00:00 16,3 13,8 16,0 19,7 9 5 17 9 NNW 1019,0 49 60 0,0
03.08.2020 08:00:00 14,6 14,1 11,8 19,8 5 3 11 6 NNW 1018,8 40 36 0,0
03.08.2020 07:00:00 13,6 13,0 10,9 19,8 5 3 8 4 NW 1018,6 11 0 0,0
03.08.2020 06:00:00 14,4 13,8 13,6 19,9 5 3 9 5 W 1018,5 34 0 0,0
03.08.2020 05:00:00 14,6 13,8 13,9 20,0 8 4 10 5 W 1018,5 20 0 0,2
03.08.2020 04:00:00 15,0 13,9 14,3 20,0 6 3 10 5 W 1019,0 18 0 0,4
03.08.2020 03:00:00 15,1 13,6 14,3 20,1 6 3 11 6 W 1019,3 49 0 0,0
03.08.2020 02:00:00 15,1 13,5 14,2 20,2 7 4 13 7 WNW 1019,5 54 0 0,0
03.08.2020 01:00:00 15,2 13,4 13,7 20,3 8 5 15 8 W 1019,8 55 0 0,0
03.08.2020 00:00:00 15,8 13,1 14,8 20,4 9 5 22 12 W 1019,8 56 0 0,0
02.08.2020 23:00:00 16,7 13,8 16,0 20,4 13 7 23 12 W 1019,8 46 0 0,0
02.08.2020 22:00:00 16,5 14,1 16,0 20,4 16 8 30 16 W 1019,7 44 20 0,0
02.08.2020 21:00:00 17,3 14,4 17,7 20,4 17 9 39 21 W 1019,8 42 13 0,0
02.08.2020 20:00:00 17,9 14,0 19,7 20,3 21 12 40 22 W 1019,9 40 28 0,0
02.08.2020 19:00:00 18,1 14,4 20,7 20,2 28 15 48 26 W 1020,1 20 12 0,0
02.08.2020 18:00:00 18,9 13,5 21,9 20,1 23 12 44 24 W 1020,1 36 41 0,0
02.08.2020 17:00:00 19,5 13,4 24,5 19,9 29 16 50 27 W 1020,5 42 32 0,0
02.08.2020 16:00:00 20,8 13,2 24,2 19,8 29 16 48 26 WSW 1020,8 44 46 0,0
02.08.2020 15:00:00 19,3 13,5 25,6 19,6 26 14 41 22 W 1021,1 35 44 0,0
02.08.2020 14:00:00 20,1 11,8 23,9 19,6 25 13 64 35 WSW 1021,2 40 56 0,0
02.08.2020 13:00:00 19,0 13,0 23,5 19,5 22 12 35 19 WSW 1021,6 45 38 0,0
02.08.2020 12:00:00 18,4 12,6 21,8 19,5 18 10 32 17 WSW 1021,8 45 15 0,0
02.08.2020 11:00:00 17,9 12,1 21,4 19,5 14 7 22 12 WSW 1022,0 34 26 0,0
02.08.2020 10:00:00 17,2 12,5 18,3 19,5 8 5 14 8 WNW 1022,1 48 11 0,0
02.08.2020 09:00:00 15,5 13,7 15,1 19,6 3 2 7 4 WNW 1021,9 41 0 0,0
02.08.2020 08:00:00 14,4 13,3 13,0 19,8 4 2 6 4 WSW 1021,7 33 3 0,0
02.08.2020 07:00:00 13,6 12,5 12,9 19,9 3 2 8 4 W 1021,5 36 0 0,0
02.08.2020 06:00:00 13,1 12,3 6,6 20,0 5 3 10 6 W 1021,5 40 0 0,0
02.08.2020 05:00:00 12,0 10,9 6,8 20,2 5 3 9 5 NW 1021,3 20 0 0,0
02.08.2020 04:00:00 12,9 11,6 10,6 20,3 6 3 12 6 NNW 1021,1 48 0 0,0
02.08.2020 03:00:00 13,9 11,9 12,1 20,4 7 4 19 11 NW 1021,5 52 0 0,0
02.08.2020 02:00:00 14,5 12,2 12,6 20,5 12 7 22 12 WNW 1021,7 53 0 0,0
02.08.2020 01:00:00 14,8 12,5 13,1 20,6 7 4 17 9 NW 1021,8 57 0 0,0
02.08.2020 00:00:00 16,0 13,1 15,0 20,6 10 5 18 10 NW 1021,4 47 0 0,0
01.08.2020 23:00:00 17,0 13,5 16,2 20,6 12 6 24 13 WNW 1021,5 60 0 0,0
01.08.2020 22:00:00 18,1 13,6 17,4 20,6 12 6 28 15 WNW 1021,0 59 1 0,0
01.08.2020 21:00:00 18,8 13,4 18,9 20,6 9 5 31 17 WNW 1020,3 51 2 0,0
01.08.2020 20:00:00 20,0 14,6 21,3 20,5 21 11 40 21 W 1020,0 39 38 0,0
01.08.2020 19:00:00 21,6 14,5 24,2 20,4 27 15 44 24 W 1019,9 20 39 0,0
01.08.2020 18:00:00 22,7 15,0 25,7 20,3 29 16 50 27 W 1019,7 21 47 0,0
01.08.2020 17:00:00 22,4 15,0 26,9 20,1 32 17 48 26 W 1019,7 22 55 0,0
01.08.2020 16:00:00 21,6 14,5 25,9 20,0 29 16 46 25 WSW 1019,7 20 30 0,0
01.08.2020 15:00:00 22,1 15,0 28,3 19,8 29 16 46 25 WSW 1019,7 20 54 0,0
01.08.2020 14:00:00 21,4 15,7 31,0 19,7 26 14 43 23 WSW 1019,9 20 60 0,0
01.08.2020 13:00:00 21,0 15,1 29,3 19,6 26 14 37 20 W 1019,8 20 57 0,0
01.08.2020 12:00:00 20,5 15,3 26,8 19,5 23 12 34 18 WSW 1019,9 19 57 0,0
01.08.2020 11:00:00 19,6 16,8 20,7 19,5 18 10 28 15 W 1019,5 20 20 0,0
01.08.2020 10:00:00 18,9 16,9 19,9 19,6 14 8 22 12 W 1019,2 19 39 0,0
01.08.2020 09:00:00 17,5 17,0 17,3 19,6 8 4 14 7 W 1018,9 18 52 0,0
01.08.2020 08:00:00 16,5 16,3 11,2 19,8 5 3 8 4 NW 1018,8 10 35 0,0
01.08.2020 07:00:00 15,1 14,9 9,9 19,8 4 2 7 4 WNW 1018,9 0,5 0 0,2
01.08.2020 06:00:00 14,7 14,4 10,5 19,9 3 2 7 4 NNW 1018,6 0,2 0 0,0
01.08.2020 05:00:00 15,2 14,9 13,7 20,0 6 3 14 8 W 1018,7 0,2 0 0,0
01.08.2020 04:00:00 16,2 15,9 12,1 20,1 11 6 19 10 W 1018,2 0,9 0 0,0
01.08.2020 03:00:00 15,6 15,3 12,6 20,1 7 4 12 6 W 1018,2 1,2 0 0,0

tt = temperature
td = dewpoint
tt 5cm = temperature 5cm
tt -20cm = temperature -20cm
ff = wind speed
fx = gusts
dd = wind direction
ppp = reduced air pressure
vv = visibility
sd = sunshine duration
rr = precipitation

Next stations